Flag for Poland Weather past 2 weeks in Sosnowiec, Poland

Now
45 °F

Passing clouds.


Feels Like: 35 °F
Forecast: 35 / 41 °F
Wind: 30 mph from West

Location: Katowice Airport

Current Time: Mar 31, 2015 at 11:47:37 PM

Latest Report: Mar 31, 2015 at 11:00 PM


Visibility: N/A

Pressure: 29.39 "Hg

Humidity: 61%

Dew point: 32 °F

Location of SosnowiecLocation

Historic Weather in Sosnowiec — Graph

°F

Sosnowiec temperature yesterday

Maximum temperature yesterday: 48 °F (at 2:00 AM)
Minimum temperature yesterday: 37 °F (at 4:30 PM)
Average temperature yesterday: 44 °F

Past Weeks' High & Low Weather Summary

 TemperatureHumidityPressure
High66 °F (Mar 25, 2:00 PM)100% (Mar 20, 2:30 AM)30.57 "Hg (Mar 20, 2:30 AM)
Low19 °F (Mar 23, 5:00 AM)25% (Mar 23, 1:30 PM)29.24 "Hg (Mar 30, 5:00 AM)
Average42 °F68%29.98 "Hg
* Reported Mar 16 9:00 PM — Mar 31 10:30 PM, Sosnowiec, Weather by CustomWeather, © 2015

Note: Actual official high and low records may vary slightly from our data, if they occured in-between our weather recording intervals... More about our weather records

Advertising

Sosnowiec weather history for previous 24 hours

 ConditionsComfort  
Time TempWeatherWind HumidityBarometerVisibility
10:30 PM
Tue, Mar 31
43 °FPassing clouds.26 mph66%29.36 "HgN/A
10:00 PM45 °FPartly cloudy.24 mph66%29.36 "HgN/A
9:30 PM43 °FPassing clouds.28 mph71%29.36 "HgN/A
9:00 PM45 °FThundershowers. Passing clouds.28 mph66%29.33 "HgN/A
8:30 PM45 °FThunderstorms. Passing clouds.30 mph71%29.33 "HgN/A
8:00 PM45 °FScattered clouds.33 mph76%29.30 "HgN/A
7:30 PM46 °FSprinkles. Scattered clouds.18 mph76%29.30 "HgN/A
7:00 PM46 °FScattered clouds.13 mph76%29.24 "HgN/A
6:30 PM46 °FScattered clouds.15 mph76%29.24 "HgN/A
6:00 PM46 °FScattered clouds.16 mph82%29.24 "HgN/A
5:30 PM46 °FPartly sunny.16 mph76%29.24 "HgN/A
5:00 PM46 °FScattered clouds.20 mph82%29.24 "HgN/A
4:30 PM46 °FScattered clouds.15 mph82%29.24 "HgN/A
4:00 PM43 °FScattered clouds.16 mph93%29.24 "HgN/A
3:30 PM43 °FLight rain. Scattered clouds.15 mph87%29.27 "Hg5 mi
3:00 PM43 °FSprinkles. Broken clouds.18 mph87%29.27 "Hg4 mi
2:30 PM41 °FRain showers. Broken clouds.15 mph87%29.27 "Hg4 mi
2:00 PM37 °FLight rain. Partly sunny.10 mph93%29.24 "HgN/A
1:30 PM37 °FBroken clouds.10 mph93%29.27 "HgN/A
1:00 PM34 °FLight snow. Broken clouds.10 mph100%29.30 "Hg5 mi
12:30 PM34 °FSnow showers. Fog.10 mph93%29.33 "Hg1 mi
12:00 PM34 °FLight rain. Fog.9 mph93%29.36 "Hg2 mi
11:30 AM34 °FSnow flurries. Fog.8 mph93%29.42 "Hg3 mi
11:00 AM34 °FSnow flurries. Fog.14 mph93%29.45 "Hg1 mi
10:30 AM39 °FPassing clouds.10 mph61%29.45 "HgN/A
10:00 AM39 °FPassing clouds.9 mph65%29.47 "HgN/A
9:30 AM37 °FPassing clouds.7 mph70%29.50 "HgN/A
9:00 AM37 °FSunny.9 mph70%29.53 "Hg10 mi
8:30 AM37 °FSunny.12 mph70%29.53 "Hg10 mi
8:00 AM37 °FPassing clouds.10 mph70%29.56 "HgN/A
7:30 AM37 °FPassing clouds.7 mph70%29.59 "HgN/A
7:00 AM36 °FPassing clouds.6 mph75%29.62 "HgN/A
6:30 AM37 °FPassing clouds.7 mph70%29.65 "HgN/A
6:00 AM36 °FPassing clouds.9 mph75%29.65 "HgN/A
5:30 AM37 °FPassing clouds.13 mph70%29.68 "HgN/A
5:00 AM37 °FPassing clouds.16 mph70%29.68 "HgN/A
4:30 AM37 °FPassing clouds.15 mph70%29.68 "HgN/A
4:00 AM37 °FPassing clouds.16 mph75%29.68 "HgN/A
3:30 AM39 °FPassing clouds.16 mph70%29.68 "HgN/A
3:00 AM39 °FPassing clouds.18 mph70%29.68 "HgN/A
2:30 AM39 °FPassing clouds.20 mph70%29.68 "HgN/A
2:00 AM39 °FPassing clouds.16 mph70%29.68 "HgN/A
1:30 AM39 °FPartly cloudy.17 mph70%29.65 "HgN/A
1:00 AM39 °FPassing clouds.22 mph70%29.65 "HgN/A
12:30 AM39 °FPassing clouds.22 mph70%29.65 "HgN/A
12:00 AM39 °FPassing clouds.21 mph75%29.62 "HgN/A
11:00 PM
Mon, Mar 30
41 °FPassing clouds.20 mph70%29.59 "HgN/A
Weather by CustomWeather, © 2015

See weather overviewHow to use our weather pages